SL-14 DEB *, 47086

Orbit data source: Space-Track

SL-14 DEB *, 47086 is space debris in LEO originally from a launch on Thu, 15 Aug 1991 UTC launched from the Plesetsk Missile And Space Complex (PKMTR). Debris objects in space refer to the collection of defunct objects orbiting the Earth. Examples of debris include non-operational satellites, rocket bodies, and fragments generated from explosions, collisions, or faulty payload assembly.

Loading next visibility...
Identifier
47086, 1991-056DL
Orbit
LEO
Country
Flag of CISCIS
Related business
Manufacturer
Unknown
Mission
Spacecraft
Bus & Motor
Unknown
Mass
Unknown
Launch date (UTC)
1991-08-15 (35 years ago)
Launch vehicle
Unknown
Launch site
Plesetsk Missile And Space Complex (PKMTR)
Object type
Payload
Rocket body
Debris
Shape & HBR
Unknown shape, 0.1 m
Radar Cross Section
Small (<0.1 m²)

Expand to show TLE details & history
Last TLE update: 4 days ago

TLE from 4 days ago
0 SL-14 DEB *
1 47086U 91056DL  26124.13679592  .00005112  00000-0  22768-2 0  9999
2 47086  82.5504 274.3794 0014238 142.5549 217.6627 14.22633539283872
Epoch: 2026-05-04T03:16Z
TLE epoch observation values (Epoch: 2026-05-04T03:16:59.167Z)
Latitude
-0.00008°
Longitude
3.10254°
Altitude
827.532 km
Speed
7.435 km/s
True Right ascension
18h 17m 31s
True Declination
0° 00' 00"
Sunlit
Object was in full shadow at epoch
Visualization orbit readout
Latitude
Unknown
Longitude
Unknown
Altitude
Unknown
Speed
Unknown
Apparent Right ascension
Unknown
Apparent Declination
Unknown
Sunlit
N/A
Visualization observer readout
Local Sidereal Time
21:01:52
Azimuth
Unknown
Elevation
Unknown
Doppler factor
Unknown
Orbital elements
Apogee altitude
823.799 km
Perigee altitude
803.319 km
Semi-major axis
7,191.696 km
Eccentricity
0.00142
Inclination
82.5504°
RAAN
274.3794°
Arg. of periapsis
142.5549°
True anomaly
217.56315°
Mean anomaly
217.6627°
Eccentric anomaly
217.61291°
Mean motion
3.55874 °/min
Orbital period
101.16 mins
BSTAR
0.0022768
Loading maneuver chart data...
Computing Atmospheric mass density...
Loading historical data...
Loading historical data...
Loading historical data...
Loading historical data...
Loading historical data...
Loading historical data...
Loading historical data...

Documentation

Showing up to 5 results
|